User: anonymous   Login
Location: Unspecified
(0.0000°N, 0.0000°E)
Time: 16:35:55
(UTC+01:00)
Language:

Cosmos 1953 Rocket - Orbit

View from above orbital plane
View from above orbital plane
View from above satellite
View from above satellite

Ground track
Ground track

The orbit data is extracted from the following two-line orbital elements,

1 19211U 88050B   17348.64261896 +.00000087 +00000-0 +77915-5 0  9999
2 19211 082.5270 033.6516 0020518 240.8277 233.8729 14.82989863572455
Epoch (UTC): 14 December 2017 15:25:22
Eccentricity: 0.0020518
inclination: 82.5270°
perigee height: 605 km
apogee height: 634 km
right ascension of ascending node: 33.6516°
argument of perigee: 240.8277°
revolutions per day: 14.82989863
mean anomaly at epoch: 233.8729°
orbit number at epoch: 57245

The dashed part of the orbit path shows where the satellite is in the earth's shadow,  

DLR